Volver al catálogo

QIANFAN-230

ActivoComunicacionesPO
NORAD 69859·PAYLOAD·🇨🇳 China

Lanzado Jul 5, 2026 desde Wenchang Space Launch Site

Loading…

Próximos Pases (próximas 24 horas)

TLE

ActualizadoSource: Space-Track

Época: Sep 14, 2026, 20:50 UTC

1 69859U 26155M   26257.86872059 -.01804708  00000-0 -29744+1 0  9999
2 69859  89.0077  54.3077 0036321  29.8355 330.4857 13.51092928  9956

Sigue QIANFAN-230 en tiempo real con AllMySat

Download on the App Store